1508907600.52,34981,9.19,74044.5,-1.65,-21.13,-24.11,0,*52
1508907601.8,34982,9.25,74046.0,-1.65,-21.27,-24.25,0,*51
1508907603.08,34983,9.19,74046.5,-1.65,-20.99,-23.95,0,*58
1508907604.36,34984,9.25,74046.0,-1.65,-20.99,-23.95,0,*5F
1508907605.62,34985,9.19,74046.5,-1.63,-21.27,-24.41,0,*52
1508907606.85,34986,9.25,74046.5,-1.63,-21.57,-24.61,0,*54
1508907608.13,34987,9.19,74046.5,-1.65,-21.57,-24.67,0,*55
1508907609.39,34988,9.19,74044.0,-1.65,-21.33,-24.35,0,*5F
1508907610.62,34989,9.19,74044.5,-1.65,-21.47,-24.61,0,*5C
1508907611.86,34990,9.25,74048.8,-1.63,-21.43,-24.71,0,*57
1508907613.12,34991,9.19,74046.8,-1.63,-21.57,-24.71,0,*53
1508907614.4,34992,9.25,74050.5,-1.65,-21.57,-24.67,0,*51
1508907615.63,34993,9.25,74048.8,-1.67,-21.63,-24.83,0,*5F
1508907616.88,34994,9.25,74050.5,-1.65,-21.43,-24.67,0,*52
1508907618.12,34995,9.19,74048.8,-1.65,-21.47,-24.77,0,*56
1508907619.35,34996,9.19,74050.5,-1.65,-21.43,-24.61,0,*56
1508907620.62,34997,9.19,74050.0,-1.63,-21.53,-24.71,0,*51
1508907621.85,34998,9.19,74048.8,-1.65,-21.63,-24.77,0,*5D
1508907623.08,34999,9.19,74046.8,-1.65,-21.73,-24.97,0,*53
1508907624.34,35000,9.19,74048.3,-1.65,-21.63,-24.83,0,*5F
1508907625.6,35001,9.25,74048.5,-1.65,-21.73,-24.83,0,*5F
1508907626.85,35002,9.19,74046.5,-1.65,-21.63,-24.83,0,*5D
1508907628.11,35003,9.19,74046.8,-1.65,-21.63,-24.83,0,*5C
1508907629.36,35004,9.25,74048.3,-1.65,-21.63,-24.83,0,*5B
1508907630.59,35005,9.19,74050.8,-1.65,-21.63,-24.93,0,*5B
1508907631.83,35006,9.19,74048.3,-1.67,-21.63,-24.83,0,*5B
1508907633.08,35007,9.25,74048.8,-1.65,-21.63,-24.87,0,*5C
1508907634.31,35008,9.25,74048.8,-1.67,-21.63,-24.87,0,*51
1508907635.58,35009,9.19,74046.5,-1.67,-21.33,-24.71,0,*5C
1508907636.81,35010,9.19,74050.3,-1.67,-21.47,-24.67,0,*50
1508907638.06,35011,9.19,74046.5,-1.65,-21.57,-24.97,0,*5D
1508907639.27,35012,9.19,74044.5,-1.67,-21.63,-24.97,0,*5B
1508907640.51,35013,9.25,74050.0,-1.67,-21.67,-24.97,0,*5E
1508907641.77,35014,9.25,74048.8,-1.65,-21.27,-24.77,0,*51
1508907642.98,35015,9.19,74046.0,-1.67,-21.63,-24.97,0,*5C
1508907644.21,35016,9.19,74048.8,-1.67,-21.39,-24.83,0,*55
1508907645.44,35017,9.19,74048.0,-1.65,-21.13,-24.35,0,*53
1508907646.67,35018,9.19,74046.3,-1.65,-21.43,-24.77,0,*5F
1508907647.9,35019,9.19,74044.8,-1.65,-21.63,-25.09,0,*54
1508907649.17,35020,9.25,74046.3,-1.67,-21.83,-25.29,0,*50
1508907650.42,35021,9.25,74046.0,-1.65,-21.57,-24.97,0,*5E
1508907651.63,35022,9.19,74040.5,-1.67,-21.47,-24.97,0,*5E
1508907652.88,35023,9.25,74044.8,-1.67,-21.53,-25.13,0,*57
1508907654.09,35024,9.19,74040.3,-1.67,-21.47,-24.97,0,*58
1508907655.35,35025,9.19,74040.0,-1.67,-21.33,-24.87,0,*5B
1508907656.58,35026,9.19,74036.5,-1.67,-21.67,-25.19,0,*5F
1508907657.85,35027,9.19,74036.8,-1.65,-21.57,-25.09,0,*5E
1508907659.11,35028,9.19,74042.0,-1.67,-21.53,-25.03,0,*5D
1508907660.35,35029,9.19,74040.5,-1.63,-21.67,-25.19,0,*54
1508907661.64,35030,9.19,74044.8,-1.65,-21.87,-25.45,0,*5D
1508907662.87,35031,9.19,74046.8,-1.65,-21.73,-25.23,0,*57
1508907664.16,35032,9.19,74044.8,-1.65,-21.57,-25.29,0,*58
1508907665.44,35033,9.25,74046.5,-1.65,-21.33,-24.83,0,*5A
1508907666.7,35034,9.19,74046.8,-1.67,-21.33,-24.71,0,*52
1508907667.93,35035,9.19,74046.0,-1.67,-21.39,-24.83,0,*54
1508907669.17,35036,9.19,74044.0,-1.63,-21.43,-25.03,0,*57
1508907670.41,35037,9.19,74046.8,-1.63,-21.83,-25.39,0,*53
1508907671.64,35038,9.19,74044.3,-1.65,-22.07,-25.65,0,*5C
1508907672.87,35039,9.19,74046.0,-1.65,-22.07,-25.61,0,*59
1508907674.1,35040,9.19,74046.0,-1.65,-22.07,-25.65,0,*53
1508907675.37,35041,9.25,74048.0,-1.65,-22.17,-25.65,0,*53
1508907676.63,35042,9.19,74050.5,-1.65,-22.27,-25.81,0,*59
1508907677.86,35043,9.19,74046.3,-1.65,-22.03,-25.65,0,*54
1508907679.11,35044,9.19,74048.8,-1.65,-21.93,-25.61,0,*5D
1508907680.33,35045,9.19,74048.8,-1.67,-21.93,-25.49,0,*54
1508907681.57,35046,9.19,74044.8,-1.65,-22.03,-25.61,0,*55
1508907682.85,35047,9.25,74048.8,-1.65,-22.21,-25.75,0,*51
1508907684.12,35048,9.19,74050.5,-1.67,-22.31,-25.97,0,*51
1508907685.35,35049,9.19,74048.8,-1.67,-22.31,-25.87,0,*51
1508907686.64,35050,9.19,74050.5,-1.65,-22.21,-25.81,0,*5C
1508907687.93,35051,9.19,74048.0,-1.65,-22.17,-25.75,0,*53
1508907689.22,35052,9.25,74050.8,-1.65,-22.17,-25.81,0,*5B
1508907690.46,35053,9.25,74050.5,-1.67,-22.41,-25.97,0,*5C
1508907691.7,35054,9.25,74050.3,-1.67,-22.41,-26.13,0,*54
1508907692.93,35055,9.19,74048.8,-1.67,-22.41,-25.97,0,*5A
1508907694.2,35056,9.19,74050.5,-1.67,-22.31,-25.97,0,*5E
1508907695.46,35057,9.19,74052.5,-1.67,-22.31,-25.97,0,*5F
1508907696.68,35058,9.19,74048.0,-1.67,-22.41,-26.03,0,*59
1508907697.89,35059,9.19,74050.8,-1.67,-22.41,-26.03,0,*58
1508907699.13,35060,9.19,74050.0,-1.67,-22.27,-25.81,0,*5B
1508907700.34,35061,9.25,74048.5,-1.67,-22.41,-26.03,0,*53
1508907701.6,35062,9.19,74048.3,-1.67,-22.47,-26.17,0,*53
1508907702.82,35063,9.19,74048.3,-1.67,-22.41,-26.03,0,*51
1508907704.03,35064,9.19,74048.8,-1.67,-22.41,-26.03,0,*56
1508907705.25,35065,9.19,74048.8,-1.67,-22.41,-26.03,0,*57
1508907706.5,35066,9.25,74052.5,-1.69,-22.41,-26.13,0,*5B
1508907707.77,35067,9.19,74050.3,-1.69,-22.27,-25.81,0,*52
1508907709.03,35068,9.19,74052.3,-1.69,-22.41,-25.97,0,*5A
1508907710.28,35069,9.19,74050.0,-1.69,-22.31,-25.87,0,*5D
1508907711.57,35070,9.19,74048.8,-1.69,-22.31,-25.81,0,*53
1508907712.8,35071,9.19,74050.3,-1.67,-22.11,-25.81,0,*5E
1508907714.02,35072,9.19,74048.0,-1.67,-21.93,-25.49,0,*50
1508907715.32,35073,9.19,74048.0,-1.65,-22.17,-25.75,0,*53
1508907716.55,35074,9.19,74054.3,-1.67,-22.41,-25.97,0,*59
1508907717.82,35075,9.19,74052.3,-1.67,-22.31,-25.97,0,*5F
1508907719.06,35076,9.19,74052.3,-1.67,-21.93,-25.55,0,*59
1508907720.32,35077,9.19,74054.5,-1.67,-21.03,-24.41,0,*55
1508907721.59,35078,9.25,74054.8,-1.65,-20.35,-23.95,0,*52
1508907722.85,35079,9.19,74050.5,-1.61,-20.73,-24.41,0,*5B
1508907724.09,35080,9.19,74048.3,-1.61,-20.43,-24.05,0,*5E
1508907725.32,35081,9.19,74042.0,-1.59,-20.79,-24.51,0,*5C
1508907726.56,35082,9.25,74044.0,-1.59,-21.17,-24.83,0,*59
1508907727.82,35083,9.19,74038.5,-1.55,-20.83,-24.41,0,*56
1508907729.11,35084,9.19,74038.8,-1.53,-20.49,-24.21,0,*57
1508907730.34,35085,9.19,74036.5,-1.51,-21.17,-24.83,0,*56
1508907731.57,35086,9.19,74036.5,-1.51,-21.57,-25.19,0,*53
1508907732.83,35087,9.19,74036.5,-1.51,-21.57,-25.29,0,*51
1508907734.06,35088,9.19,74034.0,-1.51,-21.73,-25.29,0,*58
1508907735.31,35089,9.19,74036.3,-1.51,-21.87,-25.49,0,*54
1508907736.52,35090,9.19,74036.0,-1.51,-21.73,-25.49,0,*57
1508907737.74,35091,9.19,74036.3,-1.51,-21.93,-25.61,0,*52
1508907739.03,35092,9.19,74034.0,-1.49,-21.87,-25.55,0,*5A
1508907740.31,35093,9.19,74042.0,-1.49,-21.83,-25.29,0,*54
1508907741.6,35094,9.19,74038.5,-1.49,-21.87,-25.55,0,*5C
1508907742.88,35095,9.19,74038.0,-1.49,-21.97,-25.55,0,*5C
1508907744.14,35096,9.19,74040.3,-1.49,-21.83,-25.39,0,*50
1508907745.44,35097,9.19,74040.0,-1.47,-21.87,-25.55,0,*51
1508907746.73,35098,9.19,74038.5,-1.49,-22.17,-25.75,0,*58
1508907747.99,35099,9.19,74042.0,-1.47,-22.17,-25.87,0,*5A
1508907749.22,35100,9.19,74042.5,-1.47,-22.63,-26.23,0,*55
1508907750.49,35101,9.25,74048.3,-1.47,-22.77,-26.45,0,*51
1508907751.72,35102,9.19,74046.8,-1.49,-22.67,-26.39,0,*56
1508907752.98,35103,9.19,74046.0,-1.49,-22.77,-26.45,0,*5D
1508907754.22,35104,9.19,74044.0,-1.47,-22.93,-26.45,0,*5E
1508907755.48,35105,9.19,74050.0,-1.47,-22.97,-26.55,0,*5A
1508907756.76,35106,9.19,74048.8,-1.47,-23.03,-26.71,0,*53
1508907758.02,35107,9.19,74044.0,-1.49,-22.97,-26.55,0,*56
1508907759.25,35108,9.19,74048.0,-1.49,-22.93,-26.45,0,*5C
1508907760.51,35109,9.19,74050.8,-1.49,-22.97,-26.55,0,*58
1508907761.76,35110,9.19,74050.8,-1.49,-22.97,-26.55,0,*50
1508907763.04,35111,9.19,74050.5,-1.49,-23.19,-26.71,0,*50
1508907764.33,35112,9.19,74048.0,-1.49,-23.19,-26.77,0,*55
1508907765.56,35113,9.25,74048.8,-1.49,-23.13,-26.61,0,*59
1508907766.79,35114,9.25,74052.0,-1.51,-23.19,-26.65,0,*59
1508907768.0,35115,9.19,74048.8,-1.51,-22.97,-26.61,0,*5B
1508907769.2,35116,9.25,74050.5,-1.51,-22.87,-26.49,0,*53
1508907770.4,35117,9.19,74050.0,-1.51,-22.97,-26.49,0,*53
1508907771.62,35118,9.19,74048.8,-1.51,-23.09,-26.61,0,*50
1508907772.85,35119,9.19,74048.8,-1.53,-22.97,-26.49,0,*5F
1508907774.08,35120,9.25,74048.0,-1.53,-23.09,-26.61,0,*59
1508907775.34,35121,9.19,74050.3,-1.53,-23.23,-26.65,0,*54
1508907776.6,35122,9.19,74046.5,-1.51,-23.23,-26.77,0,*56
1508907777.88,35123,9.25,74052.8,-1.53,-23.23,-26.77,0,*55
1508907779.11,35124,9.19,74050.0,-1.51,-23.19,-26.65,0,*5A
1508907780.35,35125,9.19,74050.8,-1.51,-23.19,-26.61,0,*5F
1508907781.58,35126,9.19,74048.5,-1.51,-23.23,-26.65,0,*51
1508907782.83,35127,9.19,74046.5,-1.53,-23.23,-26.65,0,*52
1508907784.12,35128,9.19,74048.3,-1.53,-23.23,-26.77,0,*5E
1508907785.34,35129,9.19,74048.8,-1.51,-23.39,-26.93,0,*5C
1508907786.6,35130,9.19,74048.3,-1.53,-23.39,-26.81,0,*55
1508907787.88,35131,9.19,74048.5,-1.53,-23.33,-26.77,0,*57
1508907789.13,35132,9.25,74052.0,-1.53,-23.39,-26.93,0,*54
1508907790.39,35133,9.19,74054.8,-1.53,-23.39,-26.93,0,*55
1508907791.67,35134,9.19,74052.3,-1.53,-23.33,-26.81,0,*5B
1508907792.96,35135,9.19,74052.3,-1.53,-23.23,-26.81,0,*5B
1508907794.19,35136,9.19,74048.8,-1.55,-23.13,-26.55,0,*54
1508907795.46,35137,9.25,74052.3,-1.55,-22.77,-26.29,0,*5D
1508907796.72,35138,9.19,74052.8,-1.55,-22.77,-26.29,0,*52
1508907797.96,35139,9.25,74054.5,-1.53,-22.53,-26.07,0,*5F
1508907799.17,35140,9.19,74048.8,-1.51,-22.97,-26.45,0,*5D
1508907800.43,35141,9.19,74050.3,-1.53,-23.19,-26.61,0,*5F
1508907801.72,35142,9.19,74048.3,-1.53,-23.19,-26.77,0,*5B
1508907802.98,35143,9.19,74050.8,-1.53,-23.03,-26.49,0,*5C
1508907804.21,35144,9.25,74052.5,-1.53,-23.09,-26.61,0,*5B
1508907805.44,35145,9.19,74050.8,-1.51,-22.87,-26.33,0,*58
1508907806.68,35146,9.19,74050.5,-1.51,-22.97,-26.29,0,*51
1508907807.91,35147,9.19,74050.8,-1.51,-23.23,-26.61,0,*52
1508907809.12,35148,9.19,74050.5,-1.51,-23.09,-26.61,0,*55
1508907810.33,35149,9.25,74050.5,-1.51,-23.09,-26.49,0,*5E
1508907811.56,35150,9.19,74050.3,-1.51,-23.23,-26.65,0,*50
1508907812.82,35151,9.19,74050.0,-1.53,-23.23,-26.65,0,*53
1508907814.02,35152,9.19,74050.8,-1.51,-23.09,-26.49,0,*54
1508907815.25,35153,9.19,74050.8,-1.51,-23.23,-26.61,0,*57
1508907816.45,35154,9.19,74048.3,-1.51,-23.39,-26.65,0,*5F
1508907817.68,35155,9.19,74048.3,-1.51,-23.39,-26.77,0,*5D
1508907818.94,35156,9.19,74044.3,-1.49,-23.33,-26.61,0,*5A
1508907820.2,35157,9.19,74044.3,-1.47,-23.33,-26.61,0,*55
1508907821.48,35158,9.19,74044.3,-1.49,-23.19,-26.71,0,*5D
1508907822.76,35159,9.19,74046.3,-1.47,-23.29,-26.71,0,*51
1508907824.04,35160,9.19,74046.5,-1.49,-23.33,-26.71,0,*5E
1508907825.3,35161,9.19,74044.3,-1.47,-23.43,-26.77,0,*50
1508907826.59,35162,9.25,74046.3,-1.49,-23.49,-26.77,0,*57
1508907827.87,35163,9.19,74040.0,-1.47,-23.19,-26.55,0,*5D
1508907829.13,35164,9.25,74046.5,-1.47,-23.29,-26.61,0,*5E
1508907830.41,35165,9.19,74046.0,-1.47,-23.65,-26.93,0,*5A
1508907831.68,35166,9.19,74046.5,-1.47,-24.05,-27.19,0,*5B
1508907832.96,35167,9.25,74046.8,-1.47,-24.11,-27.45,0,*56
1508907834.22,35168,9.25,74046.8,-1.47,-24.15,-27.55,0,*5C
1508907835.48,35169,9.19,74044.5,-1.47,-24.15,-27.55,0,*5D
1508907836.76,35170,9.19,74046.8,-1.49,-24.11,-27.39,0,*55
1508907838.02,35171,9.19,74048.3,-1.47,-23.79,-26.93,0,*52
1508907839.28,35172,9.19,74050.5,-1.47,-24.05,-27.19,0,*5E
1508907840.55,35173,9.25,74050.3,-1.47,-24.11,-27.55,0,*52
1508907841.82,35174,9.25,74050.3,-1.49,-24.15,-27.45,0,*5E
1508907843.11,35175,9.19,74044.3,-1.47,-24.11,-27.39,0,*5E
1508907844.4,35176,9.19,74048.5,-1.47,-24.11,-27.39,0,*5D
1508907845.66,35177,9.25,74052.0,-1.49,-24.25,-27.55,0,*5F
1508907846.93,35178,9.25,74052.8,-1.47,-24.47,-27.61,0,*5D
1508907848.21,35179,9.19,74050.8,-1.49,-24.41,-27.61,0,*54
1508907849.45,35180,9.19,74048.5,-1.49,-24.57,-27.71,0,*54
1508907850.71,35181,9.19,74050.8,-1.49,-24.47,-27.61,0,*55
1508907851.97,35182,9.19,74054.5,-1.49,-24.31,-27.45,0,*51
1508907853.25,35183,9.19,74048.3,-1.49,-24.15,-27.39,0,*5D
1508907854.54,35184,9.25,74052.5,-1.49,-24.25,-27.39,0,*59
1508907855.8,35185,9.25,74058.0,-1.49,-24.41,-27.55,0,*50
1508907857.03,35186,9.19,74048.8,-1.49,-24.31,-27.55,0,*54
1508907858.26,35187,9.19,74050.8,-1.49,-24.57,-27.55,0,*55
1508907859.47,35188,9.19,74050.8,-1.51,-24.35,-27.51,0,*53
1508907860.72,35189,9.19,74048.8,-1.51,-24.47,-27.61,0,*54
1508907861.93,35190,9.19,74052.0,-1.51,-24.47,-27.51,0,*5F
1508907863.17,35191,9.19,74048.5,-1.51,-24.47,-27.61,0,*5D
1508907864.41,35192,9.19,74054.8,-1.51,-24.51,-27.61,0,*59
1508907865.67,35193,9.19,74052.0,-1.51,-24.21,-27.45,0,*59
1508907866.93,35194,9.19,74052.8,-1.49,-24.31,-27.45,0,*56
1508907868.15,35195,9.19,74052.0,-1.51,-24.31,-27.29,0,*54
1508907869.41,35196,9.19,74052.8,-1.53,-24.47,-27.61,0,*58
1508907870.67,35197,9.19,74050.0,-1.53,-24.61,-27.61,0,*5D
1508907871.89,35198,9.25,74054.0,-1.51,-24.61,-27.67,0,*56
1508907873.12,35199,9.19,74052.8,-1.53,-24.61,-27.67,0,*55
1508907874.38,35200,9.19,74050.3,-1.53,-24.35,-27.45,0,*57
1508907875.67,35201,9.19,74052.3,-1.53,-24.21,-27.45,0,*53
1508907876.95,35202,9.19,74052.8,-1.53,-24.11,-26.93,0,*59
1508907878.21,35203,9.19,74050.8,-1.53,-24.15,-27.07,0,*50
1508907879.45,35204,9.19,74048.5,-1.51,-24.31,-27.23,0,*55
1508907880.71,35205,9.19,74048.0,-1.53,-24.35,-27.45,0,*52
1508907881.92,35206,9.25,74050.0,-1.51,-24.51,-27.51,0,*54
1508907883.13,35207,9.19,74044.0,-1.51,-24.61,-27.51,0,*56
1508907884.38,35208,9.25,74048.8,-1.49,-24.47,-27.45,0,*51
1508907885.63,35209,9.25,74046.5,-1.51,-24.51,-27.61,0,*58
1508907886.86,35210,9.25,74048.0,-1.51,-24.83,-27.77,0,*58
1508907888.07,35211,9.25,74044.5,-1.51,-24.77,-27.67,0,*53
1508907889.27,35212,9.25,74048.0,-1.51,-24.93,-27.77,0,*5B
1508907890.53,35213,9.25,74050.5,-1.53,-24.83,-27.67,0,*58
1508907891.73,35214,9.25,74044.8,-1.51,-25.09,-27.93,0,*55
1508907892.96,35215,9.19,74046.3,-1.53,-25.09,-27.93,0,*56
1508907894.23,35216,9.19,74044.5,-1.51,-24.83,-27.61,0,*59
1508907895.46,35217,9.19,74044.8,-1.53,-25.09,-27.67,0,*5F
1508907896.72,35218,9.25,74048.8,-1.49,-24.77,-27.61,0,*55
1508907897.95,35219,9.19,74048.0,-1.51,-24.77,-27.61,0,*5D
1508907899.2,35220,9.25,74050.5,-1.53,-24.93,-27.61,0,*5F
1508907900.41,35221,9.19,74046.8,-1.51,-25.09,-27.93,0,*53
1508907901.63,35222,9.19,74048.3,-1.53,-24.97,-27.77,0,*5E
1508907902.87,35223,9.25,74048.3,-1.53,-24.97,-27.67,0,*5E
1508907904.1,35224,9.19,74048.0,-1.53,-24.97,-27.67,0,*59
1508907905.38,35225,9.19,74048.5,-1.49,-24.87,-27.61,0,*54
1508907906.58,35226,9.25,74050.5,-1.51,-25.09,-27.77,0,*5E
1508907907.84,35227,9.19,74050.8,-1.53,-25.13,-27.83,0,*5D
1508907909.1,35228,9.19,74048.3,-1.53,-25.35,-28.09,0,*5B
1508907910.33,35229,9.19,74048.0,-1.53,-25.13,-27.67,0,*59
1508907911.59,35230,9.19,74052.0,-1.53,-25.35,-28.09,0,*52
1508907912.84,35231,9.25,74054.8,-1.51,-25.29,-28.09,0,*5C
1508907914.12,35232,9.19,74048.5,-1.53,-25.45,-27.99,0,*51
1508907915.35,35233,9.19,74054.5,-1.53,-25.35,-27.93,0,*5D
1508907916.6,35234,9.19,74048.3,-1.53,-25.35,-28.09,0,*56
1508907917.83,35235,9.19,74050.5,-1.51,-25.61,-28.09,0,*54
1508907919.08,35236,9.19,74048.5,-1.53,-25.45,-27.93,0,*5F
1508907920.33,35237,9.19,74050.0,-1.53,-25.29,-27.93,0,*54
1508907921.56,35238,9.19,74048.8,-1.53,-25.35,-27.93,0,*56
1508907922.79,35239,9.19,74052.0,-1.53,-25.35,-27.93,0,*57
1508907924.04,35240,9.19,74052.8,-1.53,-25.35,-27.83,0,*58
1508907925.27,35241,9.19,74050.5,-1.53,-25.19,-27.77,0,*5C
1508907926.5,35242,9.19,74052.8,-1.53,-25.19,-27.67,0,*5E
1508907927.73,35243,9.25,74052.0,-1.53,-25.19,-27.67,0,*5F
1508907929.01,35244,9.19,74050.0,-1.53,-25.45,-27.83,0,*5B
1508907930.27,35245,9.19,74048.0,-1.53,-25.49,-27.99,0,*5D
1508907931.55,35246,9.19,74048.3,-1.53,-25.45,-27.99,0,*52
1508907932.8,35247,9.25,74052.3,-1.53,-25.35,-27.83,0,*5F
1508907934.04,35248,9.19,74050.3,-1.55,-25.49,-27.99,0,*56
1508907935.31,35249,9.19,74052.3,-1.55,-25.55,-27.99,0,*5A
1508907936.53,35250,9.19,74052.8,-1.55,-25.87,-28.15,0,*56
1508907937.77,35251,9.19,74054.8,-1.55,-25.87,-28.21,0,*50
1508907939.01,35252,9.19,74050.3,-1.59,-25.87,-28.21,0,*5F
1508907940.23,35253,9.19,74050.0,-1.55,-25.87,-28.31,0,*53
1508907941.47,35254,9.19,74052.0,-1.59,-25.97,-28.31,0,*59
1508907942.73,35255,9.19,74052.3,-1.59,-25.81,-28.05,0,*58
1508907943.95,35256,9.19,74054.5,-1.55,-25.49,-27.71,0,*5F
1508907945.22,35257,9.19,74052.3,-1.55,-25.71,-27.99,0,*53
1508907946.48,35258,9.19,74050.0,-1.55,-25.71,-27.99,0,*5C
1508907947.72,35259,9.19,74050.5,-1.59,-25.87,-27.99,0,*58
1508907948.97,35260,9.19,74052.8,-1.55,-25.71,-27.89,0,*56
1508907950.18,35261,9.19,74054.0,-1.59,-25.65,-27.89,0,*5E
1508907951.42,35262,9.19,74048.3,-1.59,-25.65,-27.83,0,*57
1508907952.66,35263,9.25,74054.3,-1.59,-25.71,-27.89,0,*59
1508907953.87,35264,9.19,74050.0,-1.59,-25.65,-27.89,0,*5B
1508907955.12,35265,9.19,74054.5,-1.59,-25.87,-27.99,0,*57
1508907956.36,35266,9.19,74054.0,-1.59,-25.87,-27.99,0,*54
1508907957.62,35267,9.19,74054.0,-1.61,-26.07,-28.21,0,*59
1508907958.87,35268,9.25,74058.5,-1.61,-26.03,-27.93,0,*54
1508907960.13,35269,9.19,74048.5,-1.61,-25.75,-27.77,0,*5D
1508907961.36,35270,9.19,74054.5,-1.61,-25.91,-27.93,0,*55
1508907962.58,35271,9.19,74048.5,-1.63,-26.03,-27.93,0,*5E
1508907963.81,35272,9.19,74054.3,-1.61,-25.91,-27.93,0,*57
1508907965.07,35273,9.19,74048.3,-1.61,-25.71,-27.71,0,*54
1508907966.33,35274,9.19,74052.3,-1.61,-25.75,-27.77,0,*51
1508907967.6,35275,9.19,74052.8,-1.61,-25.91,-28.05,0,*50
1508907968.83,35276,9.19,74050.5,-1.61,-25.91,-27.93,0,*53
1508907970.09,35277,9.19,74054.5,-1.61,-26.07,-28.05,0,*5E
1508907971.36,35278,9.19,74048.8,-1.63,-26.17,-28.09,0,*5E
1508907972.56,35279,9.19,74054.8,-1.63,-25.91,-27.77,0,*54
1508907973.83,35280,9.19,74052.0,-1.63,-25.71,-27.61,0,*5B
1508907975.12,35281,9.25,74054.8,-1.61,-25.75,-27.61,0,*5C
1508907976.33,35282,9.25,74056.8,-1.63,-25.61,-27.55,0,*5F
1508907977.57,35283,9.25,74058.8,-1.61,-25.87,-27.71,0,*52
1508907978.8,35284,9.25,74058.0,-1.63,-25.75,-27.77,0,*5C
1508907980.06,35285,9.19,74054.3,-1.61,-25.61,-27.39,0,*50
1508907981.32,35286,9.19,74054.5,-1.61,-25.61,-27.39,0,*53
1508907982.62,35287,9.25,74054.3,-1.61,-25.55,-27.39,0,*55
1508907983.88,35288,9.19,74054.0,-1.61,-25.39,-27.19,0,*52
1508907985.14,35289,9.19,74054.0,-1.63,-25.71,-27.61,0,*52
1508907986.44,35290,9.19,74048.5,-1.61,-25.55,-27.35,0,*5F
1508907987.7,35291,9.19,74050.5,-1.61,-25.87,-27.61,0,*50
1508907988.96,35292,9.19,74052.3,-1.61,-25.87,-27.61,0,*53
1508907990.2,35293,9.19,74052.8,-1.61,-25.91,-27.71,0,*54
1508907991.42,35294,9.19,74056.0,-1.63,-26.03,-27.71,0,*59
1508907992.68,35295,9.25,74056.0,-1.61,-25.61,-27.35,0,*5D
1508907993.92,35296,9.25,74054.5,-1.61,-25.87,-27.55,0,*50
1508907995.15,35297,9.19,74052.3,-1.61,-25.91,-27.71,0,*50
1508907996.39,35298,9.19,74050.8,-1.61,-26.07,-27.77,0,*55
1508907997.59,35299,9.19,74048.3,-1.63,-26.23,-27.77,0,*50
1508907998.85,35300,9.19,74048.0,-1.61,-26.17,-27.77,0,*54
1508908000.09,35301,9.19,74048.0,-1.61,-26.07,-27.77,0,*54
1508908001.3,35302,9.19,74050.0,-1.63,-26.03,-27.77,0,*51
1508908002.54,35303,9.19,74050.8,-1.63,-26.17,-27.77,0,*55
1508908003.8,35304,9.19,74050.3,-1.61,-26.07,-27.61,0,*56
1508908005.01,35305,9.19,74052.5,-1.63,-25.91,-27.71,0,*58
1508908006.25,35306,9.19,74048.8,-1.63,-26.07,-27.61,0,*56
1508908007.47,35307,9.25,74054.0,-1.63,-26.03,-27.55,0,*54
1508908008.68,35308,9.19,74048.5,-1.63,-26.03,-27.55,0,*5B
1508908009.92,35309,9.19,74044.5,-1.61,-25.91,-27.55,0,*50
1508908011.18,35310,9.19,74046.3,-1.61,-25.91,-27.35,0,*5E
1508908012.41,35311,9.19,74048.5,-1.63,-25.91,-27.39,0,*51
1508908013.67,35312,9.25,74050.8,-1.61,-25.91,-27.39,0,*50
1508908014.94,35313,9.19,74046.5,-1.61,-26.17,-27.55,0,*56
1508908016.18,35314,9.19,74050.3,-1.63,-26.03,-27.39,0,*5C
1508908017.42,35315,9.25,74052.5,-1.61,-26.07,-27.55,0,*51
1508908018.65,35316,9.19,74046.3,-1.63,-26.23,-27.61,0,*51
1508908019.91,35317,9.19,74050.3,-1.61,-26.23,-27.61,0,*52
1508908021.17,35318,9.19,74046.3,-1.61,-26.07,-27.35,0,*5A
1508908022.41,35319,9.19,74044.3,-1.61,-25.91,-27.07,0,*56
1508908023.65,35320,9.19,74044.0,-1.63,-26.03,-27.23,0,*50
1508908024.89,35321,9.25,74048.8,-1.61,-25.87,-27.07,0,*5A
1508908026.15,35322,9.19,74046.5,-1.61,-25.91,-27.19,0,*51
1508908027.4,35323,9.19,74048.8,-1.61,-25.91,-27.19,0,*50
1508908028.66,35324,9.19,74046.5,-1.61,-25.91,-27.23,0,*5E
1508908029.9,35325,9.19,74046.3,-1.59,-25.87,-26.97,0,*5D
1508908031.15,35326,9.19,74050.3,-1.59,-26.13,-27.29,0,*54
1508908032.41,35327,9.19,74048.8,-1.61,-26.07,-27.23,0,*51
1508908033.7,35328,9.19,74050.5,-1.61,-26.17,-27.39,0,*54
1508908034.93,35329,9.19,74050.0,-1.61,-26.23,-27.55,0,*58
1508908036.2,35330,9.19,74050.5,-1.61,-26.33,-27.55,0,*51
1508908037.43,35331,9.19,74048.8,-1.61,-25.91,-27.03,0,*58
1508908038.67,35332,9.19,74052.3,-1.61,-25.91,-27.03,0,*5B
1508908039.93,35333,9.19,74052.5,-1.61,-26.23,-27.35,0,*55
1508908041.19,35334,9.25,74052.3,-1.61,-26.07,-27.19,0,*5A
1508908042.43,35335,9.19,74050.5,-1.59,-25.87,-26.97,0,*5C
1508908043.67,35336,9.19,74052.0,-1.59,-25.55,-26.65,0,*5D
1508908044.88,35337,9.25,74052.3,-1.59,-25.35,-26.49,0,*54
1508908046.09,35338,9.19,74050.3,-1.55,-25.35,-26.39,0,*50
1508908047.29,35339,9.19,74046.3,-1.59,-25.35,-26.49,0,*5A
1508908048.53,35340,9.19,74048.0,-1.55,-25.49,-26.55,0,*5E
1508908049.79,35341,9.19,74044.5,-1.55,-25.81,-26.71,0,*5D
1508908051.02,35342,9.19,74048.3,-1.55,-26.17,-27.13,0,*57
1508908052.26,35343,9.19,74046.3,-1.55,-26.13,-27.13,0,*52
1508908053.49,35344,9.19,74046.0,-1.55,-26.13,-27.03,0,*54
1508908054.74,35345,9.19,74048.0,-1.55,-26.03,-26.97,0,*58
1508908055.96,35346,9.19,74048.0,-1.55,-26.03,-27.03,0,*57
1508908057.18,35347,9.19,74046.5,-1.55,-26.03,-26.87,0,*5B
1508908058.42,35348,9.19,74048.8,-1.55,-26.17,-27.03,0,*5C
1508908059.65,35349,9.19,74046.8,-1.55,-26.29,-27.13,0,*51
1508908060.89,35350,9.19,74048.5,-1.59,-26.29,-27.13,0,*55
1508908062.15,35351,9.19,74048.3,-1.55,-26.17,-26.97,0,*58
1508908063.39,35352,9.19,74052.3,-1.59,-26.13,-26.87,0,*52
1508908064.65,35353,9.19,74052.0,-1.55,-25.71,-26.55,0,*57
1508908065.87,35354,9.19,74048.3,-1.55,-26.03,-26.65,0,*55
1508908067.13,35355,9.19,74048.3,-1.55,-25.97,-26.81,0,*50
1508908068.38,35356,9.19,74050.0,-1.55,-26.17,-27.03,0,*53
1508908069.61,35357,9.19,74048.3,-1.55,-26.49,-27.19,0,*52
1508908070.85,35358,9.19,74050.5,-1.55,-26.29,-27.03,0,*50
1508908072.11,35359,9.19,74050.3,-1.55,-26.13,-26.71,0,*5C
1508908073.37,35360,9.19,74050.0,-1.53,-26.13,-26.65,0,*55
1508908074.6,35361,9.19,74052.0,-1.55,-25.81,-26.65,0,*5A
1508908075.84,35362,9.19,74048.8,-1.55,-26.03,-26.81,0,*5A
1508908077.11,35363,9.19,74048.3,-1.55,-26.29,-26.97,0,*54
1508908078.37,35364,9.25,74052.0,-1.55,-26.17,-26.81,0,*59
1508908079.58,35365,9.19,74048.0,-1.55,-26.39,-27.13,0,*5E
1508908080.8,35366,9.19,74048.5,-1.55,-26.49,-27.29,0,*53
1508908082.04,35367,9.19,74048.5,-1.55,-26.49,-27.19,0,*51
1508908083.27,35368,9.19,74052.3,-1.55,-26.55,-27.29,0,*50
1508908084.49,35369,9.19,74052.5,-1.55,-26.65,-27.29,0,*52
1508908085.74,35370,9.25,74054.0,-1.59,-26.65,-27.19,0,*55
1508908087.0,35371,9.19,74050.8,-1.59,-26.55,-27.19,0,*57
1508908088.21,35372,9.19,74054.0,-1.59,-26.39,-27.03,0,*55
1508908089.43,35373,9.19,74048.8,-1.59,-26.39,-27.03,0,*54
1508908090.65,35374,9.19,74054.3,-1.59,-26.65,-27.29,0,*52
1508908091.91,35375,9.19,74054.5,-1.59,-26.55,-27.19,0,*53
1508908093.15,35376,9.25,74056.5,-1.59,-26.55,-27.13,0,*5A
1508908094.37,35377,9.19,74054.5,-1.59,-26.49,-27.03,0,*57
1508908095.63,35378,9.19,74052.3,-1.61,-26.55,-27.03,0,*5E
1508908096.86,35379,9.25,74056.5,-1.61,-26.45,-27.07,0,*5A
1508908098.12,35380,9.19,74050.8,-1.61,-25.91,-26.55,0,*50
1508908099.36,35381,9.19,74052.5,-1.59,-26.03,-26.55,0,*52
1508908100.61,35382,9.19,74052.0,-1.59,-26.33,-27.03,0,*50
1508908101.82,35383,9.19,74052.8,-1.59,-26.39,-26.87,0,*56
1508908103.09,35384,9.19,74052.8,-1.59,-26.17,-26.71,0,*54
1508908104.33,35385,9.25,74052.8,-1.59,-26.33,-26.87,0,*5A
1508908105.57,35386,9.19,74054.8,-1.59,-26.39,-26.71,0,*5A
1508908106.81,35387,9.19,74054.3,-1.59,-26.13,-26.39,0,*5F